Waarnemingen

Advertentie
Mijn weer
Dax, Frankrijk (7603): temperatuur & dauwpunt: 17.05.2018 22:00:00 - 23.05.2018 22:00:00 (CEST)Dax, Frankrijk (7603): temperatuur 5cm: 17.05.2018 22:00:00 - 23.05.2018 22:00:00 (CEST)Dax, Frankrijk (7603): temperatuur -20cm & temperatuur -100cm: 17.05.2018 22:00:00 - 23.05.2018 22:00:00 (CEST)Dax, Frankrijk (7603): windsnelheid & windstoten: 17.05.2018 22:00:00 - 23.05.2018 22:00:00 (CEST)Dax, Frankrijk (7603): windrichting: 17.05.2018 22:00:00 - 23.05.2018 22:00:00 (CEST)Dax, Frankrijk (7603): luchtdruk: 17.05.2018 22:00:00 - 23.05.2018 22:00:00 (CEST)Dax, Frankrijk (7603): zicht: 17.05.2018 22:00:00 - 23.05.2018 22:00:00 (CEST)Dax, Frankrijk (7603): Zonneschijnduur: 17.05.2018 22:00:00 - 23.05.2018 22:00:00 (CEST)Dax, Frankrijk (7603): neerslag: 17.05.2018 22:00:00 - 23.05.2018 22:00:00 (CEST)
Datum & Tijd tt [°C] td [°C] tt 5cm [°C] tt -20cm [°C] tt -100cm [°C] ff [km/u] ff [kn] fx [km/u] fx [kn] dd ppp [hPa] vv [km] sd [min] rr [mm]
23.05.2018 22:00:00 20,5 14,4 20,0 20,6 16,1 5 3 12 6 W 1016,1 - 6 0,0
23.05.2018 21:00:00 22,3 15,4 22,0 20,6 16,1 5 3 11 6 WNW 1015,8 - 49 0,0
23.05.2018 20:00:00 23,0 15,8 24,0 20,6 16,1 4 2 17 9 NW 1015,5 - 47 0,0
23.05.2018 19:00:00 21,9 15,7 22,4 20,5 16,1 7 4 12 7 WNW 1015,6 - 3 0,0
23.05.2018 18:00:00 22,4 15,7 23,1 20,4 16,1 7 4 16 9 WNW 1015,5 - 0 0,0
23.05.2018 17:00:00 23,6 15,4 25,3 20,2 16,1 8 5 16 8 WNW 1015,6 9 0 0,0
23.05.2018 16:00:00 24,5 12,4 26,6 20,0 16,1 4 2 14 8 ZZO 1016,2 9 2 0,0
23.05.2018 15:00:00 24,8 10,6 28,0 19,7 16,1 7 4 18 10 ZZO 1016,7 9 53 0,0
23.05.2018 14:00:00 23,9 14,0 27,0 19,5 16,1 5 3 17 9 ZZW 1017,1 8 60 0,0
23.05.2018 13:00:00 22,1 15,0 24,7 19,3 16,1 9 5 16 9 OZO 1017,4 7 60 0,0
23.05.2018 12:00:00 20,5 15,1 21,1 19,2 16,1 7 4 13 7 ZZO 1017,9 6 56 0,0
23.05.2018 11:00:00 18,9 14,6 20,4 19,2 16,1 6 4 13 7 OZO 1018,2 5 41 0,0
23.05.2018 10:00:00 17,3 14,2 17,7 19,3 16,1 4 2 10 6 ZW 1018,2 4,0 3 0,0
23.05.2018 09:00:00 16,0 14,2 16,1 19,3 16,0 3 1 8 4 ZO 1018,2 3,0 0 0,0
23.05.2018 08:00:00 15,2 14,7 15,2 19,4 16,0 3 2 6 3 ZZO 1017,8 0,8 0 0,0
23.05.2018 07:00:00 15,1 14,6 14,8 19,5 16,0 2 1 9 5 W 1017,2 0,8 0 0,0
23.05.2018 06:00:00 15,0 14,5 13,7 19,6 16,0 6 3 10 5 W 1016,9 - 0 0,0
23.05.2018 05:00:00 14,5 13,9 13,9 19,7 16,0 4 2 11 6 W 1016,9 - 0 0,0
23.05.2018 04:00:00 14,6 14,0 13,7 19,9 16,0 6 3 11 6 Z 1016,9 - 0 0,0
23.05.2018 03:00:00 15,3 14,5 14,7 20,0 16,0 4 2 6 4 ZW 1017,3 - 0 0,0
23.05.2018 02:00:00 15,6 14,6 15,3 20,1 16,0 5 3 10 5 W 1017,6 - 0 0,0
23.05.2018 01:00:00 15,7 14,7 15,1 20,2 16,0 3 1 10 5 WNW 1017,4 - 0 0,0
23.05.2018 00:00:00 16,0 14,7 15,5 20,3 16,0 5 3 10 6 WZW 1017,1 - 0 0,0
22.05.2018 23:00:00 17,0 14,8 16,6 20,4 15,9 7 4 11 6 WZW 1017,0 - 0 0,0
22.05.2018 22:00:00 18,1 13,8 17,5 20,5 15,9 5 3 13 7 W 1016,2 - 0 0,0
22.05.2018 21:00:00 19,8 12,8 19,3 20,4 15,9 6 4 18 10 W 1015,7 - 34 0,0
22.05.2018 20:00:00 21,6 12,4 22,7 20,4 15,9 14 8 22 12 W 1015,4 - 60 0,0
22.05.2018 19:00:00 22,9 13,9 25,7 20,2 15,9 11 6 20 11 WNW 1015,0 - 60 0,0
22.05.2018 18:00:00 23,1 13,6 26,0 20,0 15,9 12 7 25 13 NW 1014,7 - 60 0,0
22.05.2018 17:00:00 24,0 13,2 27,6 19,7 15,9 13 7 24 13 WNW 1014,4 15 60 0,0
22.05.2018 16:00:00 24,2 13,1 27,0 19,4 15,9 17 9 28 15 WZW 1014,3 10 60 0,0
22.05.2018 15:00:00 23,1 13,8 24,7 19,1 15,8 13 7 25 13 WZW 1014,6 15 55 0,0
22.05.2018 14:00:00 23,0 14,8 25,8 18,9 15,9 9 5 21 11 WZW 1015,2 15 60 0,0
22.05.2018 13:00:00 21,7 13,8 24,5 18,7 15,8 11 6 23 13 ZW 1015,2 10 60 0,0
22.05.2018 12:00:00 20,7 13,9 21,6 18,6 15,8 11 6 22 12 WZW 1015,1 8 50 0,0
22.05.2018 11:00:00 19,9 14,5 19,3 18,6 15,8 7 4 19 11 W 1015,0 7 40 0,0
22.05.2018 10:00:00 17,9 14,6 18,4 18,6 15,8 13 7 20 11 WZW 1015,1 6 39 0,0
22.05.2018 09:00:00 16,5 14,7 16,7 18,7 15,8 10 6 19 11 WZW 1014,6 4,0 60 0,0
22.05.2018 08:00:00 14,8 14,0 14,4 18,8 15,8 9 5 14 8 ZZW 1014,2 3,0 23 0,0
22.05.2018 07:00:00 14,6 14,0 14,1 18,9 15,8 5 3 8 4 ZZW 1013,8 1,5 0 0,0
22.05.2018 06:00:00 15,0 14,4 14,5 19,0 15,8 4 2 11 6 W 1013,2 - 0 0,0
22.05.2018 05:00:00 15,2 14,4 14,5 19,0 15,8 6 3 12 6 ZZW 1012,9 - 0 0,0
22.05.2018 04:00:00 15,3 14,5 14,4 19,1 15,7 6 4 9 5 ZZW 1013,0 - 0 0,0
22.05.2018 03:00:00 16,0 14,7 15,6 19,2 15,7 4 2 13 7 WZW 1013,1 - 0 0,0
22.05.2018 02:00:00 16,3 15,0 16,2 19,3 15,7 9 5 20 11 WZW 1013,0 - 0 0,0
22.05.2018 01:00:00 16,4 15,3 15,7 19,4 15,7 11 6 20 11 WZW 1012,9 - 0 0,0
22.05.2018 00:00:00 16,3 15,0 15,3 19,5 15,7 8 4 14 7 ZW 1013,0 - 0 0,0
21.05.2018 23:00:00 16,5 13,8 15,9 19,6 15,7 7 4 11 6 ZW 1012,7 - 0 0,0
21.05.2018 22:00:00 17,3 13,6 16,8 19,6 15,7 6 4 19 10 WNW 1011,5 - 0 0,0
21.05.2018 21:00:00 18,7 13,8 18,3 19,6 15,7 10 5 26 14 W 1010,9 - 30 0,0
21.05.2018 20:00:00 20,7 15,7 17,7 19,5 15,7 13 7 31 17 WZW 1009,8 - 23 2,2
21.05.2018 19:00:00 22,9 12,8 23,1 19,4 15,7 11 6 30 16 ZZW 1009,7 - 12 0,0
21.05.2018 18:00:00 25,1 11,6 26,0 19,2 15,7 11 6 18 10 Z 1009,1 - 26 0,0
21.05.2018 17:00:00 26,7 12,7 29,3 18,9 15,6 5 3 24 13 N 1008,6 - 60 0,0
21.05.2018 16:00:00 25,7 13,5 27,1 18,8 15,6 4 2 16 9 O 1009,0 - 54 0,0
21.05.2018 15:00:00 24,2 14,3 25,1 18,6 15,6 8 4 13 7 OZO 1009,7 - 5 0,0
21.05.2018 14:00:00 22,8 12,4 23,8 18,5 15,6 8 5 17 9 OZO 1010,3 - 0 0,0
21.05.2018 13:00:00 22,5 13,6 24,9 18,3 15,6 10 5 16 9 O 1010,9 - 33 0,0
21.05.2018 12:00:00 20,3 14,0 20,8 18,3 15,6 10 5 18 10 ONO 1011,3 - 18 0,0
21.05.2018 11:00:00 18,5 13,8 21,0 18,2 15,6 10 5 17 9 NO 1011,5 - 52 0,0
21.05.2018 10:00:00 17,1 14,4 15,5 18,2 15,6 6 3 10 6 O 1011,7 - 38 0,0
21.05.2018 09:00:00 14,1 13,8 13,6 18,3 15,6 5 3 10 5 ZO 1011,9 - 13 0,0
21.05.2018 08:00:00 13,5 13,2 13,4 18,4 15,6 5 3 9 5 OZO 1012,0 - 0 0,0
21.05.2018 07:00:00 13,5 13,2 13,2 18,5 15,5 2 1 7 4 Z 1011,9 - 0 0,0
21.05.2018 06:00:00 13,4 12,9 12,4 18,6 15,6 3 2 5 3 ZO 1011,7 - 0 0,0
21.05.2018 05:00:00 12,8 12,0 11,7 18,7 15,5 3 2 6 4 ZO 1011,8 - 0 0,0
21.05.2018 04:00:00 13,6 12,8 12,8 18,9 15,5 4 2 14 7 WZW 1012,1 - 0 0,0
21.05.2018 03:00:00 14,1 13,3 13,8 19,0 15,5 9 5 16 9 WZW 1012,8 - 0 0,0
21.05.2018 02:00:00 14,4 13,4 13,2 19,1 15,5 7 4 14 8 WZW 1013,3 - 0 0,0
21.05.2018 01:00:00 14,1 12,5 13,2 19,2 15,5 4 2 17 9 Z 1013,9 - 0 0,0
21.05.2018 00:00:00 15,0 13,0 14,1 19,3 15,5 8 4 12 6 WZW 1014,0 - 0 0,0
20.05.2018 23:00:00 15,5 12,1 14,9 19,4 15,5 5 3 11 6 W 1013,9 - 0 0,0
20.05.2018 22:00:00 16,9 11,2 16,3 19,4 15,5 7 4 16 8 W 1013,6 - 4 0,0
20.05.2018 21:00:00 19,0 11,8 18,6 19,4 15,5 8 5 19 10 WNW 1013,2 - 56 0,0
20.05.2018 20:00:00 21,3 11,6 23,2 19,3 15,5 10 5 19 10 WNW 1012,9 - 60 0,0
20.05.2018 19:00:00 22,4 12,6 24,8 19,1 15,5 10 6 24 13 W 1012,8 - 60 0,0
20.05.2018 18:00:00 22,8 14,4 25,0 18,9 15,4 14 8 26 14 WZW 1013,1 - 58 0,0
20.05.2018 17:00:00 23,0 14,0 25,3 18,6 15,4 13 7 27 14 W 1013,7 - 51 0,0
20.05.2018 16:00:00 22,7 13,2 23,2 18,3 15,4 10 5 18 10 NW 1014,5 - 58 0,0
20.05.2018 15:00:00 21,4 12,3 22,7 18,0 15,4 9 5 25 13 W 1015,3 - 51 0,0
20.05.2018 14:00:00 21,4 13,6 24,4 17,8 15,4 9 5 27 15 ZW 1016,1 - 60 0,0
20.05.2018 13:00:00 20,0 13,5 23,2 17,7 15,4 9 5 20 11 WZW 1016,7 - 60 0,0
20.05.2018 12:00:00 18,7 13,8 19,9 17,6 15,4 10 6 20 11 W 1017,3 - 36 0,0
20.05.2018 11:00:00 17,9 13,4 18,6 17,6 15,4 10 6 21 12 W 1017,6 - 32 0,0
20.05.2018 10:00:00 16,3 13,6 16,2 17,6 15,4 10 6 19 11 WZW 1017,8 - 18 0,0
20.05.2018 09:00:00 14,6 13,3 14,4 17,7 15,4 9 5 16 9 ZW 1017,6 - 10 0,0
20.05.2018 08:00:00 13,5 12,9 12,4 17,8 15,4 9 5 14 7 ZW 1017,4 - 10 0,0
20.05.2018 07:00:00 12,8 12,2 12,2 17,9 15,4 5 3 13 7 ZZW 1017,2 - 0 0,2
20.05.2018 06:00:00 13,0 12,4 12,4 18,0 15,4 7 4 12 7 WZW 1017,1 - 0 0,0
20.05.2018 05:00:00 13,3 12,7 12,8 18,1 15,4 8 4 14 8 ZW 1017,4 - 0 0,0
20.05.2018 04:00:00 13,6 12,8 13,3 18,2 15,4 8 5 18 10 WZW 1017,4 - 0 0,0
20.05.2018 03:00:00 13,5 12,9 12,7 18,3 15,3 5 3 17 9 ZW 1018,0 - 0 0,0
20.05.2018 02:00:00 13,5 12,7 12,9 18,4 15,4 9 5 16 8 ZW 1018,3 - 0 0,0
20.05.2018 01:00:00 13,8 12,7 13,5 18,5 15,3 9 5 16 9 WZW 1018,5 - 0 0,0
20.05.2018 00:00:00 14,2 12,8 13,9 18,6 15,4 9 5 15 8 WZW 1018,6 - 0 0,0
19.05.2018 23:00:00 14,8 12,7 14,3 18,7 15,3 7 4 14 7 WZW 1018,5 - 0 0,0
19.05.2018 22:00:00 16,2 12,2 15,5 18,7 15,3 8 4 14 8 W 1018,0 - 3 0,0
19.05.2018 21:00:00 18,0 11,8 17,9 18,6 15,3 10 5 19 11 WNW 1017,8 - 58 0,0
19.05.2018 20:00:00 20,4 9,3 22,0 18,6 15,3 12 7 26 14 W 1017,3 - 60 0,0
19.05.2018 19:00:00 22,1 10,6 24,9 18,4 15,3 11 6 24 13 WNW 1017,1 - 60 0,0
19.05.2018 18:00:00 22,1 12,4 24,3 18,2 15,3 10 6 22 12 W 1017,3 - 57 0,0
19.05.2018 17:00:00 21,5 14,4 23,1 18,0 15,3 11 6 25 14 W 1017,6 - 32 0,0
19.05.2018 16:00:00 20,6 14,0 23,1 17,7 15,3 15 8 24 13 WZW 1018,2 - 41 0,0
19.05.2018 15:00:00 20,9 14,1 23,9 17,5 15,3 15 8 25 13 WZW 1018,6 - 50 0,0
19.05.2018 14:00:00 20,4 14,3 22,6 17,3 15,3 16 8 26 14 WZW 1018,8 - 41 0,0
19.05.2018 13:00:00 19,9 14,5 20,4 17,1 15,3 14 8 26 14 ZW 1019,2 - 48 0,0
19.05.2018 12:00:00 18,9 13,5 19,9 17,1 15,3 12 7 26 14 WZW 1019,6 - 44 0,0
19.05.2018 11:00:00 17,9 13,4 18,0 17,1 15,3 13 7 23 12 WZW 1019,6 - 18 0,0
19.05.2018 10:00:00 16,6 13,3 16,5 17,1 15,3 13 7 23 12 WZW 1019,4 - 0 0,0
19.05.2018 09:00:00 15,9 14,1 15,4 17,1 15,3 8 4 15 8 W 1019,1 - 0 0,0
19.05.2018 08:00:00 14,8 13,5 14,3 17,2 15,3 9 5 16 8 WZW 1019,0 - 0 0,0
19.05.2018 07:00:00 14,3 13,3 14,1 17,2 15,3 8 4 14 8 ZZW 1018,7 - 0 0,0
19.05.2018 06:00:00 14,3 13,5 14,2 17,3 15,3 10 5 15 8 ZZW 1018,2 - 0 0,0
19.05.2018 05:00:00 14,4 13,8 13,7 17,4 15,3 8 5 14 8 ZW 1018,0 - 0 0,0
19.05.2018 04:00:00 13,9 13,4 12,6 17,5 15,3 9 5 14 7 ZW 1018,3 - 0 0,0
19.05.2018 03:00:00 13,3 12,5 12,7 17,5 15,2 6 3 10 5 ZZW 1018,7 - 0 0,0
19.05.2018 02:00:00 14,1 13,1 13,6 17,7 15,3 6 3 14 8 W 1019,0 - 0 0,0
19.05.2018 01:00:00 14,7 13,6 14,4 17,7 15,2 9 5 19 10 W 1019,3 - 0 0,0
19.05.2018 00:00:00 14,6 13,5 14,2 17,8 15,2 7 4 12 7 WZW 1019,4 - 0 0,0
18.05.2018 23:00:00 15,0 13,0 14,6 17,8 15,2 7 4 13 7 WZW 1019,3 - 0 0,0
18.05.2018 22:00:00 15,8 12,9 15,3 17,8 15,2 6 4 16 9 WZW 1018,8 - 2 0,0
18.05.2018 21:00:00 17,5 13,2 17,4 17,7 15,2 7 4 22 12 WNW 1018,3 - 60 0,0
18.05.2018 20:00:00 18,9 13,5 19,7 17,6 15,2 11 6 23 13 W 1018,2 - 42 0,0
18.05.2018 19:00:00 20,1 14,2 21,6 17,4 15,2 13 7 29 16 WNW 1018,0 - 50 0,0
18.05.2018 18:00:00 20,9 14,1 22,0 17,2 15,2 13 7 23 13 W 1017,6 - 45 0,0
18.05.2018 17:00:00 20,4 14,1 22,1 16,9 15,2 15 8 24 13 WZW 1017,8 - 38 0,0
18.05.2018 16:00:00 21,3 14,9 21,5 16,7 15,2 13 7 27 15 W 1018,2 - 54 0,0
18.05.2018 15:00:00 19,7 14,3 19,7 16,6 15,2 11 6 19 11 WZW 1018,8 7 21 0,0
18.05.2018 14:00:00 18,5 14,0 19,5 16,4 15,2 9 5 14 8 W 1019,4 6 0 0,0
18.05.2018 13:00:00 18,4 13,7 19,5 16,3 15,2 3 1 9 5 NNW 1019,8 5 0 0,0
18.05.2018 12:00:00 17,8 13,9 19,2 16,3 15,2 2 1 13 7 O 1019,7 5 0 0,0
18.05.2018 11:00:00 16,8 13,3 17,1 16,3 15,2 8 5 13 7 ZZW 1019,6 5 0 0,0
18.05.2018 10:00:00 15,8 13,5 16,1 16,3 15,2 5 3 10 6 W 1019,5 4,0 0 0,0
18.05.2018 09:00:00 14,9 13,3 15,0 16,3 15,2 4 2 24 13 ZZW 1019,2 4,0 0 0,0
18.05.2018 08:00:00 14,3 13,2 14,1 16,3 15,2 3 2 11 6 W 1018,8 4,0 0 0,0
18.05.2018 07:00:00 14,0 13,0 13,6 16,4 15,2 6 3 10 5 WZW 1018,4 4,0 0 0,0
18.05.2018 06:00:00 13,6 13,0 13,4 16,4 15,2 4 2 6 4 ZZW 1018,2 - 0 0,0
18.05.2018 05:00:00 13,5 12,9 13,2 16,4 15,2 2 1 6 3 Z 1018,2 - 0 0,0
18.05.2018 04:00:00 13,2 12,6 12,8 16,5 15,2 2 1 4 2 NNW 1018,2 - 0 0,0
18.05.2018 03:00:00 13,0 12,4 12,6 16,6 15,2 0 0 6 3 N 1018,4 - 0 0,0
18.05.2018 02:00:00 13,0 12,5 11,0 16,7 15,2 2 1 7 4 ZZW 1018,7 - 0 0,0
18.05.2018 01:00:00 12,2 11,6 10,7 16,8 15,2 4 2 8 5 Z 1019,1 - 0 0,0
18.05.2018 00:00:00 13,1 12,2 12,0 16,8 15,2 0 0 10 5 N 1018,9 - 0 0,0
17.05.2018 23:00:00 13,6 12,2 13,0 16,8 15,2 6 4 12 7 NW 1018,8 - 0 0,0
17.05.2018 22:00:00 14,6 12,3 13,9 16,8 15,2 6 4 18 10 WNW 1018,1 - 1 0,0

tt = temperatuur
td = dauwpunt
tt 5cm = temperatuur 5cm
tt -20cm = temperatuur -20cm
tt -100cm = temperatuur -100cm
ff = windsnelheid
fx = windstoten
dd = windrichting
ppp = luchtdruk
vv = zicht
sd = Zonneschijnduur
rr = neerslag

Weerstations in de omgeving